P/2005 JD108 ( Catalina-NEAT )

Japanese version
Home page
Updated on February 11, 2007

---------------------------------------------------------------------

* Profile

Discovery Date May 12 and June 28, 2005
Magnitude 18.9 mag, 18.4 mag
Discoverer Catalina Sky Survey, Near-Earth-Asteroid Tracking Team

* Pictures

* Orbital Elements

Epoch 2005 Aug. 18.0 TT = JDT 2453600.5
T 2005 Aug. 10.48278 TT                                 MPC
q   4.0288444            (2000.0)            P               Q
n   0.06029378     Peri.   90.32384     +0.70140710     +0.71164273
a   6.4410163      Node   224.30795     -0.67456725     +0.64469765
e   0.3745017      Incl.    3.27531     -0.23018930     +0.27915867
P  16.35

* Finding Charts

* Magnitudes Graph

        m1 = 9.5 + 5 log d + 10.0 log r

---------------------------------------------------------------------

The orbital elements are published on M.P.E.C. 2006-S42.
The charts are made with StellaNavigator Ver.2.0 for Windows (AstroArts / ASCII).
The magnitudes graphs are made with Comet for Windows.

---------------------------------------------------------------------

Copyright(C) Seiichi Yoshida (comet@aerith.net). All rights reserved.